When you browse on this site, cookies collect data to enhance your experience and personalize the content and advertising you see.
Visit our Privacy Policy to learn more. By continuing to use the site, you agree to this use of cookies and data.
  • In Deutschland
  • Länderverzeichnis
  • Für 7 Tage
  • Wassertemperatur
  • Satellitenkarten
  • Wetterkarte
  • Widgets
  • user-avatar
    Anmelden

    Stündliche Wetter Mykhalkove

    Heute, 21 November, Mittwoch

    Zeit Temperatur Niederschläge Wind Luftdruck Luftfeuchtigkeit
    00:00 -4°C° 0 mm 3 m/S 746 mmHg 92%
    01:00 -4°C° 0 mm 3 m/S 746 mmHg 92%
    02:00 -4°C° 0 mm 3 m/S 746 mmHg 92%
    03:00 -5°C° 0 mm 3 m/S 746 mmHg 92%
    04:00 -5°C° 0 mm 3 m/S 746 mmHg 92%
    05:00 -5°C° 0 mm 3 m/S 745 mmHg 92%
    06:00 -5°C° 0 mm 4 m/S 745 mmHg 92%
    07:00 -5°C° 0 mm 4 m/S 745 mmHg 92%
    08:00 -7°C° 0 mm 4 m/S 745 mmHg 92%
    09:00 -5°C° 0 mm 4 m/S 746 mmHg 90%
    10:00 -4°C° 0 mm 4 m/S 746 mmHg 88%
    11:00 -4°C° 0 mm 4 m/S 746 mmHg 87%
    12:00 -3°C° 0 mm 4 m/S 746 mmHg 86%
    13:00 -3°C° 0 mm 4 m/S 746 mmHg 86%
    14:00 -2°C° 0 mm 4 m/S 746 mmHg 85%
    15:00 -2°C° 0 mm 3 m/S 746 mmHg 87%
    16:00 -4°C° 0 mm 3 m/S 746 mmHg 89%
    17:00 -4°C° 0 mm 3 m/S 746 mmHg 91%
    18:00 -5°C° 0 mm 3 m/S 746 mmHg 91%
    19:00 -5°C° 0 mm 3 m/S 746 mmHg 91%
    20:00 -6°C° 0 mm 3 m/S 747 mmHg 92%
    21:00 -5°C° 0 mm 2 m/S 747 mmHg 92%
    22:00 -5°C° 0 mm 2 m/S 747 mmHg 93%
    23:00 -6°C° 0 mm 2 m/S 747 mmHg 93%

    Morgen, 22 November, Donnerstag

    Zeit Temperatur Niederschläge Wind Luftdruck Luftfeuchtigkeit
    00:00 -6°C° 0 mm 2 m/S 747 mmHg 93%
    01:00 -6°C° 0 mm 2 m/S 747 mmHg 93%
    02:00 -6°C° 0 mm 1 m/S 747 mmHg 93%
    03:00 -6°C° 0 mm 1 m/S 747 mmHg 93%
    04:00 -6°C° 0 mm 1 m/S 747 mmHg 92%
    05:00 -6°C° 0 mm 1 m/S 747 mmHg 92%
    06:00 -6°C° 0 mm 1 m/S 747 mmHg 92%
    07:00 -6°C° 0 mm 1 m/S 747 mmHg 92%
    08:00 -6°C° 0 mm 1 m/S 747 mmHg 92%
    09:00 -4°C° 0 mm 1 m/S 748 mmHg 89%
    10:00 -3°C° 0 mm 1 m/S 748 mmHg 86%
    11:00 -2°C° 0 mm 1 m/S 748 mmHg 83%
    12:00 -1°C° 0 mm 1 m/S 747 mmHg 82%
    13:00 -2°C° 0 mm 0 m/S 747 mmHg 81%
    14:00 -1°C° 0 mm 0 m/S 747 mmHg 80%
    15:00 -2°C° 0 mm 0 m/S 747 mmHg 83%
    16:00 -2°C° 0 mm 1 m/S 747 mmHg 85%
    17:00 -3°C° 0 mm 1 m/S 747 mmHg 87%
    18:00 -3°C° 0 mm 1 m/S 747 mmHg 86%
    19:00 -3°C° 0 mm 1 m/S 747 mmHg 86%
    20:00 -4°C° 0 mm 1 m/S 748 mmHg 86%
    21:00 -4°C° 0 mm 1 m/S 748 mmHg 86%
    22:00 -4°C° 0 mm 1 m/S 748 mmHg 85%
    23:00 -4°C° 0 mm 1 m/S 748 mmHg 85%

    übermorgen, 23 November, Freitag

    Zeit Temperatur Niederschläge Wind Luftdruck Luftfeuchtigkeit
    00:00 -4°C° 0 mm 1 m/S 748 mmHg 85%
    01:00 -4°C° 0 mm 1 m/S 748 mmHg 85%
    02:00 -4°C° 0 mm 1 m/S 748 mmHg 85%
    03:00 -4°C° 0 mm 1 m/S 748 mmHg 85%
    04:00 -4°C° 0 mm 1 m/S 748 mmHg 84%
    05:00 -4°C° 0 mm 1 m/S 748 mmHg 84%
    06:00 -4°C° 0 mm 1 m/S 748 mmHg 84%
    07:00 -4°C° 0 mm 1 m/S 749 mmHg 84%
    08:00 -4°C° 0 mm 1 m/S 749 mmHg 84%
    09:00 -3°C° 0 mm 1 m/S 749 mmHg 81%
    10:00 -3°C° 0 mm 0 m/S 749 mmHg 79%
    11:00 -2°C° 0 mm 0 m/S 750 mmHg 76%
    12:00 -1°C° 0 mm 0 m/S 750 mmHg 76%
    13:00 -1°C° 0 mm 0 m/S 749 mmHg 77%
    14:00 0°C° 0 mm 0 m/S 749 mmHg 77%
    15:00 -1°C° 0 mm 0 m/S 749 mmHg 79%
    16:00 -2°C° 0 mm 1 m/S 749 mmHg 82%
    17:00 -3°C° 0 mm 1 m/S 749 mmHg 84%
    18:00 -3°C° 0 mm 1 m/S 749 mmHg 85%
    19:00 -3°C° 0 mm 1 m/S 750 mmHg 85%
    20:00 -6°C° 0 mm 2 m/S 750 mmHg 86%
    21:00 -6°C° 0 mm 2 m/S 750 mmHg 87%
    22:00 -6°C° 0 mm 2 m/S 749 mmHg 88%
    23:00 -6°C° 0 mm 2 m/S 749 mmHg 88%

    24 November, Samstag

    Zeit Temperatur Niederschläge Wind Luftdruck Luftfeuchtigkeit
    00:00 -7°C° 0 mm 2 m/S 749 mmHg 89%
    01:00 -7°C° 0 mm 2 m/S 749 mmHg 89%
    02:00 -7°C° 0 mm 2 m/S 749 mmHg 89%
    03:00 -7°C° 0 mm 2 m/S 748 mmHg 89%
    04:00 -8°C° 0 mm 2 m/S 748 mmHg 89%
    05:00 -8°C° 0 mm 2 m/S 748 mmHg 89%
    06:00 -9°C° 0 mm 3 m/S 747 mmHg 89%
    07:00 -9°C° 0 mm 3 m/S 747 mmHg 89%
    08:00 -9°C° 0 mm 3 m/S 747 mmHg 89%
    09:00 -8°C° 0 mm 3 m/S 747 mmHg 87%
    10:00 -7°C° 0 mm 3 m/S 746 mmHg 85%
    11:00 -7°C° 0 mm 4 m/S 746 mmHg 83%
    12:00 -5°C° 0 mm 4 m/S 746 mmHg 84%
    13:00 -5°C° 0 mm 4 m/S 745 mmHg 84%
    14:00 -4°C° 0 mm 4 m/S 744 mmHg 85%
    15:00 -5°C° 0 mm 3 m/S 744 mmHg 87%
    16:00 -6°C° 0 mm 3 m/S 744 mmHg 90%
    17:00 -6°C° 0 mm 3 m/S 743 mmHg 92%
    18:00 -6°C° 0 mm 3 m/S 743 mmHg 92%
    19:00 -6°C° 0 mm 3 m/S 743 mmHg 92%
    20:00 -6°C° 0 mm 3 m/S 743 mmHg 92%
    21:00 -5°C° 0 mm 2 m/S 743 mmHg 91%
    22:00 -5°C° 0 mm 2 m/S 742 mmHg 91%
    23:00 -5°C° 0 mm 2 m/S 742 mmHg 91%

    25 November, Sonntag

    Zeit Temperatur Niederschläge Wind Luftdruck Luftfeuchtigkeit
    00:00 -5°C° 0 mm 2 m/S 742 mmHg 90%
    01:00 -5°C° 0 mm 2 m/S 741 mmHg 90%
    02:00 -5°C° 0 mm 2 m/S 741 mmHg 90%
    03:00 -2°C° 0 mm 1 m/S 741 mmHg 90%
    04:00 -2°C° 0 mm 1 m/S 741 mmHg 90%
    05:00 -2°C° 0 mm 1 m/S 740 mmHg 90%
    06:00 -1°C° 0 mm 1 m/S 740 mmHg 90%
    07:00 -1°C° 0 mm 1 m/S 740 mmHg 90%
    08:00 -1°C° 0 mm 1 m/S 740 mmHg 90%
    09:00 0°C° 0 mm 1 m/S 740 mmHg 90%
    10:00 +1°C° 0 mm 1 m/S 740 mmHg 90%
    11:00 +2°C° 0 mm 1 m/S 740 mmHg 90%
    12:00 +2°C° 0 mm 1 m/S 739 mmHg 91%
    13:00 +2°C° 0 mm 1 m/S 739 mmHg 92%
    14:00 +2°C° 0 mm 1 m/S 739 mmHg 93%
    15:00 +2°C° 0 mm 1 m/S 739 mmHg 92%
    16:00 +1°C° 0 mm 1 m/S 739 mmHg 91%
    17:00 0°C° 0 mm 1 m/S 738 mmHg 90%
    18:00 0°C° 0.1 mm 1 m/S 738 mmHg 90%
    19:00 0°C° 0.1 mm 1 m/S 738 mmHg 90%
    20:00 0°C° 0.1 mm 1 m/S 738 mmHg 90%
    21:00 0°C° 0 mm 1 m/S 738 mmHg 90%
    22:00 0°C° 0 mm 1 m/S 738 mmHg 89%
    23:00 +1°C° 0 mm 1 m/S 738 mmHg 89%

    26 November, Montag

    Zeit Temperatur Niederschläge Wind Luftdruck Luftfeuchtigkeit
    00:00 -1°C° 0 mm 0 m/S 737 mmHg 89%
    01:00 -1°C° 0 mm 0 m/S 737 mmHg 89%
    02:00 -1°C° 0 mm 0 m/S 737 mmHg 89%
    03:00 -1°C° 0.1 mm 0 m/S 737 mmHg 90%
    04:00 -1°C° 0.1 mm 0 m/S 736 mmHg 90%
    05:00 0°C° 0.1 mm 1 m/S 736 mmHg 90%
    06:00 -1°C° 0.4 mm 0 m/S 736 mmHg 91%
    07:00 0°C° 0.4 mm 0 m/S 736 mmHg 91%
    08:00 0°C° 0.4 mm 0 m/S 736 mmHg 91%
    09:00 0°C° 0.4 mm 0 m/S 736 mmHg 93%
    10:00 +1°C° 0.4 mm 1 m/S 736 mmHg 94%
    11:00 +2°C° 0.4 mm 1 m/S 736 mmHg 96%
    12:00 +2°C° 0.1 mm 1 m/S 736 mmHg 96%
    13:00 +2°C° 0.1 mm 1 m/S 735 mmHg 97%
    14:00 +2°C° 0.1 mm 1 m/S 735 mmHg 98%
    15:00 +1°C° 0 mm 2 m/S 735 mmHg 97%
    16:00 -1°C° 0 mm 2 m/S 735 mmHg 96%
    17:00 -1°C° 0 mm 2 m/S 735 mmHg 96%
    18:00 -1°C° 0 mm 2 m/S 735 mmHg 96%
    19:00 -1°C° 0 mm 2 m/S 735 mmHg 96%
    20:00 -1°C° 0 mm 2 m/S 735 mmHg 96%
    21:00 -1°C° 0 mm 2 m/S 735 mmHg 96%
    22:00 -1°C° 0 mm 2 m/S 735 mmHg 96%
    23:00 -1°C° 0 mm 2 m/S 735 mmHg 96%
    Mehr zeigen